Location: Ellerstadt
(49.4644°N, 8.2615°E)
Time: 05:09:38
(UTC+00:00)

HJ-1C - Pass Details

Date: 03 March 2021
Orbit: 428 x 441 km, 97.1° (Epoch: 11 April)

Event Time Altitude Azimuth Distance (km) Brightness Sun altitude
Rises 18:32:13 0° 175° (S) 2,416 7.0 -13.6°
Reaches altitude 10° 18:34:15 10° 180° (S) 1,550 6.1 -13.9°
Maximum altitude 18:37:31 56° 260° (W) 529 4.1 -14.5°
Drops below altitude 10° 18:40:48 10° 339° (NNW) 1,557 6.5 -15.0°
Sets 18:42:51 0° 344° (NNW) 2,428 7.4 -15.3°
